Location: ?ern� Novina
(50.6762°N, 14.8696°E)
Time: 02:53:51
(UTC+00:00)

Cosmos 2263 Rocket - Pass Details

Date: 03 March 2021
Orbit: 825 x 847 km, 71.0° (Epoch: 13 April)

Event Time Altitude Azimuth Distance (km) Brightness Sun altitude
Rises 17:46:59 0° 324° (NW) 3,374 5.9 -10.5°
Reaches altitude 10° 17:49:40 10° 314° (NW) 2,436 5.4 -11.0°
Maximum altitude 17:54:27 30° 255° (WSW) 1,437 4.2 -11.7°
Drops below altitude 10° 17:59:13 10° 195° (SSW) 2,423 4.7 -12.5°
Sets 18:01:54 0° 185° (S) 3,354 5.3 -12.9°
